User: anonymous   Login
Location: Passau
(48.5830°N, 13.4830°E)
Time: 12:49:50
(UTC+02:00)
Language:

NOAA 19 - Orbit

View from above orbital plane
View from above orbital plane
View from above satellite
View from above satellite

Ground track
Ground track

The orbit data is extracted from the following two-line orbital elements,

1 33591U 09005A   22277.14507518  .00000213  00000-0  14033-3 0  9996
2 33591  99.1388 313.5199 0013101 240.7916 119.1945 14.12616727703790
Epoch (UTC): 04 October 2022 03:28:54
Eccentricity: 0.0013101
inclination: 99.1388°
perigee height: 841 km
apogee height: 860 km
right ascension of ascending node: 313.5199°
argument of perigee: 240.7916°
revolutions per day: 14.12616727
mean anomaly at epoch: 119.1945°
orbit number at epoch: 70379

The dashed part of the orbit path shows where the satellite is in the earth's shadow,  

DLR